Lincoln County, Oregon, United States
Lat: 44.65N, Lon: 123.85W
Wx Zone: ORZ004
Local Info
Past Weather Observations for Yesterday

NOTE: This archive is for the closest National Weather Service station to Lincoln County. Information may differ from the station used for current weather conditions.

Time Weather Temperature Dewpoint Humidity Pressure Winds Precip Visibility
23:55
Overcast
Light Rain
46°F / 8°C 45°F / 7°C 93% 30.01 in
(1016 mb)
NW 5.8 mph
(NW 9 kph)
0.02 in
(0.51 mm)
7SM
23:35
Overcast
Rain
45°F / 7°C 43°F / 6°C 93% 30.01 in
(1016 mb)
NW 6.9 mph
(NW 11 kph)
0.01 in
(0.25 mm)
7SM
23:15
Overcast
Light Rain
46°F / 8°C 45°F / 7°C 93% 29.98 in
(1015 mb)
NW 9.2 mph
(NW 15 kph)
- 7SM
22:55
Overcast
46°F / 8°C 45°F / 7°C 93% 29.98 in
(1015 mb)
NW 11.5 mph
(NW 19 kph)
- 7SM
22:35
Overcast
Light Rain
46°F / 8°C 45°F / 7°C 93% 29.98 in
(1015 mb)
NW 13.8 mph
(NW 22 kph)
- 7SM
22:15
Overcast
46°F / 8°C 45°F / 7°C 93% 29.98 in
(1015 mb)
NNW 6.9 mph
(NNW 11 kph)
- 7SM
21:55
Overcast
46°F / 8°C 45°F / 7°C 93% 29.98 in
(1015 mb)
NW 11.5 mph
(NW 19 kph)
- 10SM
21:35
Overcast
46°F / 8°C 45°F / 7°C 93% 29.98 in
(1015 mb)
NW 9.2 mph
(NW 15 kph)
- 10SM
21:15
Overcast
Drizzle
46°F / 8°C 46°F / 8°C 100% 29.98 in
(1015 mb)
Calm - 5SM
20:55
Overcast
Drizzle
46°F / 8°C 46°F / 8°C 100% 29.98 in
(1015 mb)
Calm 0.02 in
(0.51 mm)
7SM
20:35
Overcast
Light Rain
46°F / 8°C 46°F / 8°C 100% 29.98 in
(1015 mb)
N 3.5 mph
(N 6 kph)
0.01 in
(0.25 mm)
5SM
20:15
Overcast
Light Rain
46°F / 8°C 46°F / 8°C 100% 29.98 in
(1015 mb)
NW 6.9 mph
(NW 11 kph)
- 5SM
19:55
Overcast
Rain
46°F / 8°C 46°F / 8°C 100% 29.98 in
(1015 mb)
NNW 3.5 mph
(NNW 6 kph)
0.02 in
(0.51 mm)
5SM
19:35
Overcast
Light Rain
46°F / 8°C 46°F / 8°C 100% 29.98 in
(1015 mb)
NW 3.5 mph
(NW 6 kph)
0.01 in
(0.25 mm)
7SM
19:15
Overcast
Drizzle
46°F / 8°C 46°F / 8°C 100% 29.98 in
(1015 mb)
N 3.5 mph
(N 6 kph)
- 5SM
18:55
Overcast
Drizzle
46°F / 8°C 46°F / 8°C 100% 29.98 in
(1015 mb)
NW 3.5 mph
(NW 6 kph)
0.02 in
(0.51 mm)
5SM
18:35
Overcast
Rain
46°F / 8°C 45°F / 7°C 93% 29.98 in
(1015 mb)
N 6.9 mph
(N 11 kph)
0.02 in
(0.51 mm)
5SM
18:15
Overcast
Light Rain
46°F / 8°C 46°F / 8°C 100% 29.98 in
(1015 mb)
NNW 11.5 mph
(NNW 19 kph)
0.02 in
(0.51 mm)
4SM
17:55
Overcast
Rain
46°F / 8°C 46°F / 8°C 100% 29.98 in
(1015 mb)
N 8.1 mph
(N 13 kph)
0.05 in
(1.27 mm)
4SM
17:35
Overcast
Rain
46°F / 8°C 46°F / 8°C 100% 29.98 in
(1015 mb)
NW 12.7 mph
(NW 20 kph)
0.02 in
(0.51 mm)
3SM
17:15
Overcast
Heavy Rain
48°F / 9°C 46°F / 8°C 94% 29.98 in
(1015 mb)
NW 12.7 mph
(NW 20 kph)
- 2SM
16:55
Overcast
Light Rain
50°F / 10°C 46°F / 8°C 88% 29.98 in
(1015 mb)
NW 15 mph
(NW 24 kph)
0.04 in
(1.02 mm)
2 1/2SM
16:35
Overcast
Light Rain
50°F / 10°C 48°F / 9°C 94% 29.98 in
(1015 mb)
Calm 0.03 in
(0.76 mm)
3SM
16:15
Overcast
Light Rain
50°F / 10°C 48°F / 9°C 94% 29.98 in
(1015 mb)
NW 3.5 mph
(NW 6 kph)
0.02 in
(0.51 mm)
2SM
15:55
Overcast
Heavy Rain
50°F / 10°C 48°F / 9°C 94% 29.98 in
(1015 mb)
Calm 0.06 in
(1.52 mm)
2SM
15:35
Overcast
Rain
50°F / 10°C 50°F / 10°C 100% 30.01 in
(1016 mb)
SW 4.6 mph
(SW 7 kph)
0.01 in
(0.25 mm)
2SM
15:15
Overcast
Light Rain
50°F / 10°C 48°F / 9°C 94% 30.01 in
(1016 mb)
SSW 4.6 mph
(SSW 7 kph)
- 2 1/2SM
14:55
Overcast
Rain
50°F / 10°C 48°F / 9°C 94% 30.01 in
(1016 mb)
SSW 6.9 mph
(SSW 11 kph)
0.01 in
(0.25 mm)
2 1/2SM
14:35
Overcast
Drizzle
52°F / 11°C 48°F / 9°C 88% 30.01 in
(1016 mb)
SW 8.1 mph
(SW 13 kph)
0.01 in
(0.25 mm)
3SM
14:15
Overcast
Light Rain
52°F / 11°C 48°F / 9°C 88% 30.01 in
(1016 mb)
SW 8.1 mph
(SW 13 kph)
0.01 in
(0.25 mm)
3SM
13:55
Overcast
Light Rain
52°F / 11°C 46°F / 8°C 82% 30.01 in
(1016 mb)
SW 9.2 mph
(SW 15 kph)
- 3SM
13:35
Overcast
Hazy
54°F / 12°C 46°F / 8°C 77% 30.01 in
(1016 mb)
SW 8.1 mph
(SW 13 kph)
- 5SM
13:15
Overcast
Hazy
54°F / 12°C 45°F / 7°C 72% 30.01 in
(1016 mb)
SW 10.4 mph
(SW 17 kph)
- 5SM
12:55
Overcast
Hazy
54°F / 12°C 46°F / 8°C 77% 30.01 in
(1016 mb)
SW 8.1 mph
(SW 13 kph)
- 5SM
12:35
Mostly Cloudy
Hazy
55°F / 13°C 46°F / 8°C 72% 30.01 in
(1016 mb)
SW 12.7 mph
(SW 20 kph)
- 5SM
12:15
Partly Cloudy
Hazy
55°F / 13°C 46°F / 8°C 72% 30.01 in
(1016 mb)
SW 10.4 mph
(SW 17 kph)
- 5SM
11:55
Clear
55°F / 13°C 45°F / 7°C 67% 30.01 in
(1016 mb)
SW 6.9 mph
(SW 11 kph)
- 7SM
11:35
Partly Cloudy
Hazy
55°F / 13°C 45°F / 7°C 67% 30.01 in
(1016 mb)
SW 10.4 mph
(SW 17 kph)
- 5SM
11:15
Overcast
Hazy
55°F / 13°C 45°F / 7°C 67% 30.04 in
(1017 mb)
SW 10.4 mph
(SW 17 kph)
- 5SM
10:55
Overcast
Hazy
55°F / 13°C 45°F / 7°C 67% 30.04 in
(1017 mb)
SW 10.4 mph
(SW 17 kph)
- 5SM
10:35
Overcast
Hazy
55°F / 13°C 45°F / 7°C 67% 30.04 in
(1017 mb)
SW 9.2 mph
(SW 15 kph)
- 5SM
10:15
Mostly Cloudy
Hazy
55°F / 13°C 45°F / 7°C 67% 30.04 in
(1017 mb)
SW 9.2 mph
(SW 15 kph)
- 4SM
09:55
Partly Cloudy
Hazy
55°F / 13°C 45°F / 7°C 67% 30.04 in
(1017 mb)
SSW 8.1 mph
(SSW 13 kph)
- 4SM
09:35
Clear
Hazy
55°F / 13°C 46°F / 8°C 72% 30.04 in
(1017 mb)
SW 5.8 mph
(SW 9 kph)
- 4SM
09:15
Fair
55°F / 13°C 46°F / 8°C 72% 30.04 in
(1017 mb)
SW 4.6 mph
(SW 7 kph)
- 3SM
08:55
Mostly Cloudy
55°F / 13°C 45°F / 7°C 67% 30.06 in
(1018 mb)
S 3.5 mph
(S 6 kph)
- 10SM
08:35
Partly Cloudy
54°F / 12°C 45°F / 7°C 72% 30.06 in
(1018 mb)
SSE 3.5 mph
(SSE 6 kph)
- 10SM
08:15
Clear
54°F / 12°C 45°F / 7°C 72% 30.06 in
(1018 mb)
E 4.6 mph
(E 7 kph)
- 10SM
07:55
Clear
50°F / 10°C 45°F / 7°C 82% 30.06 in
(1018 mb)
E 3.5 mph
(E 6 kph)
- 10SM
07:35
Clear
48°F / 9°C 45°F / 7°C 87% 30.09 in
(1019 mb)
E 4.6 mph
(E 7 kph)
- 10SM
07:15
Partly Cloudy
45°F / 7°C 43°F / 6°C 93% 30.09 in
(1019 mb)
E 4.6 mph
(E 7 kph)
- 7SM
06:55
Partly Cloudy
45°F / 7°C 41°F / 5°C 87% 30.09 in
(1019 mb)
ESE 3.5 mph
(ESE 6 kph)
- 7SM
06:35
Clear
43°F / 6°C 41°F / 5°C 93% N/A E 6.9 mph
(E 11 kph)
- 7SM
06:15
Partly Cloudy
43°F / 6°C 41°F / 5°C 93% 30.09 in
(1019 mb)
E 6.9 mph
(E 11 kph)
- 7SM
05:55
Overcast
43°F / 6°C 41°F / 5°C 93% 30.09 in
(1019 mb)
ESE 5.8 mph
(ESE 9 kph)
- 7SM
05:35
Mostly Cloudy
43°F / 6°C 41°F / 5°C 93% 30.09 in
(1019 mb)
E 3.5 mph
(E 6 kph)
- 7SM
05:15
Partly Cloudy
43°F / 6°C 41°F / 5°C 93% 30.09 in
(1019 mb)
Calm - 7SM
04:55
Clear
43°F / 6°C 41°F / 5°C 93% 30.09 in
(1019 mb)
E 5.8 mph
(E 9 kph)
- 10SM
04:35
Clear
43°F / 6°C 41°F / 5°C 93% 30.09 in
(1019 mb)
Calm - 7SM
04:15
Clear
43°F / 6°C 41°F / 5°C 93% N/A SE 3.5 mph
(SE 6 kph)
- 7SM
03:55
Clear
43°F / 6°C 41°F / 5°C 93% 30.12 in
(1020 mb)
Calm - 7SM
03:35
Clear
45°F / 7°C 43°F / 6°C 93% 30.12 in
(1020 mb)
E 5.8 mph
(E 9 kph)
- 7SM
03:15
Clear
45°F / 7°C 43°F / 6°C 93% 30.12 in
(1020 mb)
E 4.6 mph
(E 7 kph)
- 7SM
02:55
Clear
43°F / 6°C 41°F / 5°C 93% 30.12 in
(1020 mb)
Calm - 7SM
02:35
Clear
45°F / 7°C 41°F / 5°C 87% 30.12 in
(1020 mb)
Calm - 7SM
02:15
Clear
45°F / 7°C 43°F / 6°C 93% 30.15 in
(1021 mb)
Calm - 7SM
01:55
Clear
45°F / 7°C 43°F / 6°C 93% 30.12 in
(1020 mb)
E 6.9 mph
(E 11 kph)
- 7SM
01:35
Clear
45°F / 7°C 43°F / 6°C 93% 30.15 in
(1021 mb)
E 3.5 mph
(E 6 kph)
- 7SM
01:15
Clear
45°F / 7°C 43°F / 6°C 93% 30.15 in
(1021 mb)
Calm - 7SM
00:55
Clear
45°F / 7°C 43°F / 6°C 93% 30.15 in
(1021 mb)
Calm - 7SM
00:35
Clear
45°F / 7°C 43°F / 6°C 93% 30.15 in
(1021 mb)
E 3.5 mph
(E 6 kph)
- 7SM
00:15
Clear
45°F / 7°C 43°F / 6°C 93% 30.15 in
(1021 mb)
Calm - 7SM
Time Weather Temperature Dewpoint Humidity Pressure Winds Precip Visibility


Weather for websites

WeatherForYou.com, LLC is not responsible for any damages or problems caused by this service. Current weather conditions are obtained from the closest station including government and personal stations which may have varying degrees of accuracy. Weather forecasts are derived from the NOAA NDFD. Like all things, this site belongs to Jesus Christ... He just trusts me to maintain it. If you have any questions or comments email webmaster@weatherforyou.com

Copyright © 2014, WeatherForYou.com LLC. All rights reserved.